Weather History for Hobart, OK

Change the Weather History Date:

Monday, November 4, 2013

  Actual Average Record
Temperature  
Mean Temperature 60 °F -  
Max Temperature 70 °F 61 °F 87 °F (2005)
Min Temperature 50 °F 42 °F 28 °F (2011)
Degree Days  
Heating Degree Days 5    
Growing Degree Days 10 (Base 50)    
Moisture  
Dew Point 49 °F    
Average Humidity 73    
Maximum Humidity 94    
Minimum Humidity 47    
Precipitation  
Precipitation 0.00 in - - ()
Sea Level Pressure  
Sea Level Pressure 29.94 in    
Wind  
Wind Speed 17 mph (South)    
Max Wind Speed 22 mph    
Max Gust Speed 26 mph    
Visibility 10 miles    
Events      
Averages and records for this station are not official NWS values.
T = Trace of Precipitation, MM = Missing Value Source: NWS Daily Summary

Daily Weather History Graph

Daily Weather History Graph

Search for Another Location

Airport:

Trip Planner

Search our weather history database for the weather conditions in past years. The results will help you decide how hot, cold, wet, or windy it might be!

Date:

Astronomy

Nov. 04, 2013 Rise Set
Actual Time 7:00 AM CST 5:38 PM CST
Civil Twilight 6:33 AM CST 6:05 PM CST
Nautical Twilight 6:03 AM CST 6:35 PM CST
Astronomical Twilight 5:34 AM CST 7:04 PM CST
Moon 8:10 AM CST (11/4) 6:47 PM CST (11/4)
Length of Visible Light 11h 31m
Length of Day
10h 38m
New Moon, 2% of the Moon is Illuminated
Nov 4
New Moon
Nov 9
First Quarter
Nov 17
Full
Nov 25
Last Quarter
Dec 2
New

Hourly Weather History & Observations

Time (CST) Temp. Dew Point Humidity Pressure Visibility Wind Dir Wind Speed Gust Speed Precip Events Conditions
12:53 AM 52.0 °F 43.0 °F 71% 29.88 in 10.0 mi South 16.1 mph - N/A   Partly Cloudy
1:53 AM 52.0 °F 43.0 °F 71% 29.87 in 10.0 mi South 18.4 mph - N/A   Clear
2:53 AM 51.1 °F 42.1 °F 71% 29.87 in 10.0 mi South 18.4 mph - N/A   Clear
3:53 AM 50.0 °F 42.1 °F 74% 29.88 in 10.0 mi South 19.6 mph - N/A   Clear
4:53 AM 50.0 °F 42.1 °F 74% 29.87 in 10.0 mi South 17.3 mph - N/A   Clear
5:53 AM 50.0 °F 41.0 °F 71% 29.90 in 10.0 mi South 15.0 mph - N/A   Clear
6:53 AM 50.0 °F 42.1 °F 74% 29.90 in 10.0 mi South 17.3 mph - N/A   Clear
7:53 AM 51.1 °F 43.0 °F 74% 29.89 in 10.0 mi South 21.9 mph - N/A   Clear
8:53 AM 57.0 °F 45.0 °F 64% 29.95 in 10.0 mi SSW 19.6 mph - N/A   Clear
9:53 AM 60.1 °F 46.0 °F 60% 29.97 in 10.0 mi SSW 19.6 mph - N/A   Clear
10:53 AM 63.0 °F 46.9 °F 56% 29.97 in 10.0 mi SSW 16.1 mph 23.0 mph N/A   Clear
11:53 AM 64.9 °F 46.9 °F 52% 29.95 in 10.0 mi SW 8.1 mph - N/A   Clear
12:53 PM 66.9 °F 48.0 °F 51% 29.93 in 10.0 mi SSW 8.1 mph 17.3 mph N/A   Clear
1:53 PM 69.1 °F 48.0 °F 47% 29.92 in 10.0 mi South 11.5 mph - N/A   Clear
2:53 PM 69.1 °F 48.9 °F 49% 29.91 in 10.0 mi South 10.4 mph - N/A   Clear
3:53 PM 70.0 °F 50.0 °F 49% 29.91 in 10.0 mi South 12.7 mph 17.3 mph N/A   Clear
4:53 PM 66.0 °F 54.0 °F 65% 29.92 in 10.0 mi SSE 20.7 mph - N/A   Mostly Cloudy
5:53 PM 63.0 °F 54.0 °F 72% 29.94 in 10.0 mi SE 18.4 mph - N/A   Overcast
6:53 PM 60.1 °F 54.0 °F 80% 29.97 in 10.0 mi SSE 18.4 mph 24.2 mph N/A   Clear
7:53 PM 57.9 °F 54.0 °F 87% 29.99 in 10.0 mi SE 12.7 mph - N/A   Clear
8:53 PM 57.9 °F 54.0 °F 87% 29.99 in 10.0 mi SSE 15.0 mph - N/A   Mostly Cloudy
9:06 PM 57.2 °F 53.6 °F 88% 30.01 in 10.0 mi SSE 16.1 mph 24.2 mph N/A   Overcast
9:28 PM 57.2 °F 55.4 °F 94% 30.00 in 9.0 mi SSE 20.7 mph - N/A   Overcast
9:46 PM 57.2 °F 55.4 °F 94% 30.00 in 9.0 mi SSE 19.6 mph 26.5 mph N/A   Mostly Cloudy
9:53 PM 57.9 °F 55.0 °F 90% 29.99 in 9.0 mi SSE 20.7 mph - N/A   Mostly Cloudy
10:13 PM 57.2 °F 55.4 °F 94% 30.01 in 9.0 mi SSE 16.1 mph - N/A   Overcast
10:53 PM 57.9 °F 55.0 °F 90% 29.99 in 9.0 mi South 19.6 mph 25.3 mph N/A   Overcast
11:53 PM 57.9 °F 55.0 °F 90% 29.98 in 9.0 mi South 18.4 mph 26.5 mph N/A   Overcast